Time,TemperatureF,DewpointF,PressureIn,WindDirection,WindDirectionDegrees,WindSpeedMPH,WindSpeedGustMPH,Humidity,HourlyPrecipIn,Conditions,Clouds,dailyrainin,SoftwareType,DateUTC
2013-04-06 00:00:00,35.1,23.8,30.14,ESE,112,0.0,6.3,63,0.00,,,0.00,WUHU216WMR100,2013-04-06 05:00:00,
2013-04-06 00:05:00,34.9,23.3,30.14,East,90,0.0,1.5,62,0.00,,,0.00,WUHU216WMR100,2013-04-06 05:05:00,
2013-04-06 00:10:00,34.9,23.3,30.14,East,90,0.0,0.0,62,0.00,,,0.00,WUHU216WMR100,2013-04-06 05:10:00,
2013-04-06 00:15:00,34.9,23.3,30.14,East,90,0.0,0.0,62,0.00,,,0.00,WUHU216WMR100,2013-04-06 05:15:00,
2013-04-06 00:20:00,34.9,23.3,30.14,ENE,67,2.6,2.6,62,0.00,,,0.00,WUHU216WMR100,2013-04-06 05:20:00,
2013-04-06 00:26:00,34.7,23.1,30.14,ENE,67,0.0,2.6,62,0.00,,,0.00,WUHU216WMR100,2013-04-06 05:26:00,
2013-04-06 00:31:00,34.5,22.5,30.14,ENE,67,0.0,0.0,61,0.00,,,0.00,WUHU216WMR100,2013-04-06 05:31:00,
2013-04-06 00:36:00,34.5,22.5,30.14,ENE,67,0.0,0.0,61,0.00,,,0.00,WUHU216WMR100,2013-04-06 05:36:00,
2013-04-06 00:41:00,34.3,22.7,30.14,ENE,67,0.0,1.5,62,0.00,,,0.00,WUHU216WMR100,2013-04-06 05:41:00,
2013-04-06 00:47:00,34.3,22.7,30.14,ENE,67,1.5,1.5,62,0.00,,,0.00,WUHU216WMR100,2013-04-06 05:47:00,
2013-04-06 00:52:00,34.2,22.2,30.14,NE,45,0.0,1.5,61,0.00,,,0.00,WUHU216WMR100,2013-04-06 05:52:00,
2013-04-06 00:57:00,34.2,22.6,30.14,East,90,3.6,3.6,62,0.00,,,0.00,WUHU216WMR100,2013-04-06 05:57:00,
2013-04-06 01:02:00,34.2,23.7,30.14,East,90,6.3,6.3,65,0.00,,,0.00,WUHU216WMR100,2013-04-06 06:02:00,
2013-04-06 01:07:00,34.2,24.1,30.14,SE,132,3.5,6.3,66,0.00,,,0.00,WUHU216WMR100,2013-04-06 06:07:00,
2013-04-06 01:12:00,34.0,23.5,30.11,North,0,2.1,6.3,65,0.00,,,0.00,WUHU216WMR100,2013-04-06 06:12:00,
2013-04-06 01:17:00,33.8,23.3,30.14,North,0,1.8,2.6,65,0.00,,,0.00,WUHU216WMR100,2013-04-06 06:17:00,
2013-04-06 01:22:00,33.6,22.8,30.14,North,0,0.0,2.6,64,0.00,,,0.00,WUHU216WMR100,2013-04-06 06:22:00,
2013-04-06 01:27:00,33.3,22.5,30.14,North,0,0.0,1.8,64,0.00,,,0.00,WUHU216WMR100,2013-04-06 06:27:00,
2013-04-06 01:32:00,33.3,22.5,30.14,North,0,0.0,0.0,64,0.00,,,0.00,WUHU216WMR100,2013-04-06 06:32:00,
2013-04-06 01:37:00,32.9,22.1,30.14,North,0,0.0,0.0,64,0.00,,,0.00,WUHU216WMR100,2013-04-06 06:37:00,
2013-04-06 01:42:00,32.7,21.9,30.14,North,0,0.0,0.0,64,0.00,,,0.00,WUHU216WMR100,2013-04-06 06:42:00,
2013-04-06 01:47:00,32.5,21.7,30.14,North,0,0.0,0.0,64,0.00,,,0.00,WUHU216WMR100,2013-04-06 06:47:00,
2013-04-06 01:52:00,32.2,21.4,30.14,North,0,0.0,0.0,64,0.00,,,0.00,WUHU216WMR100,2013-04-06 06:52:00,
2013-04-06 01:57:00,32.2,21.8,30.14,NE,45,3.1,3.3,65,0.00,,,0.00,WUHU216WMR100,2013-04-06 06:57:00,
2013-04-06 02:02:00,32.4,22.4,30.14,East,90,3.3,3.3,66,0.00,,,0.00,WUHU216WMR100,2013-04-06 07:02:00,
2013-04-06 02:07:00,32.5,22.8,30.14,ESE,112,3.3,3.3,67,0.00,,,0.00,WUHU216WMR100,2013-04-06 07:07:00,
2013-04-06 02:12:00,32.4,22.4,30.14,ESE,112,0.0,3.3,66,0.00,,,0.00,WUHU216WMR100,2013-04-06 07:12:00,
2013-04-06 02:17:00,32.2,22.2,30.14,ESE,112,0.0,0.0,66,0.00,,,0.00,WUHU216WMR100,2013-04-06 07:17:00,
2013-04-06 02:22:00,32.2,22.2,30.14,ESE,112,0.0,0.0,66,0.00,,,0.00,WUHU216WMR100,2013-04-06 07:22:00,
2013-04-06 02:27:00,32.4,22.7,30.14,ESE,112,0.0,0.0,67,0.00,,,0.00,WUHU216WMR100,2013-04-06 07:27:00,
2013-04-06 02:32:00,32.5,22.8,30.14,ESE,112,0.0,0.0,67,0.00,,,0.00,WUHU216WMR100,2013-04-06 07:32:00,
2013-04-06 02:37:00,32.7,23.4,30.14,ESE,112,3.3,4.1,68,0.00,,,0.00,WUHU216WMR100,2013-04-06 07:37:00,
2013-04-06 02:42:00,32.5,23.2,30.14,ESE,112,2.6,4.1,68,0.00,,,0.00,WUHU216WMR100,2013-04-06 07:42:00,
2013-04-06 02:47:00,32.5,23.2,30.11,East,90,1.8,2.6,68,0.00,,,0.00,WUHU216WMR100,2013-04-06 07:47:00,
2013-04-06 02:52:00,32.0,22.3,30.11,East,90,0.0,1.8,67,0.00,,,0.00,WUHU216WMR100,2013-04-06 07:52:00,
2013-04-06 02:57:00,31.6,22.0,30.11,East,90,0.0,0.0,67,0.00,,,0.00,WUHU216WMR100,2013-04-06 07:57:00,
2013-04-06 03:02:00,31.5,21.9,30.11,East,90,2.5,2.6,67,0.00,,,0.00,WUHU216WMR100,2013-04-06 08:02:00,
2013-04-06 03:07:00,31.6,22.7,30.11,East,90,5.1,5.1,69,0.00,,,0.00,WUHU216WMR100,2013-04-06 08:07:00,
2013-04-06 03:12:00,32.0,23.7,30.11,East,100,4.9,5.6,71,0.00,,,0.00,WUHU216WMR100,2013-04-06 08:12:00,
2013-04-06 03:17:00,32.4,24.1,30.11,East,90,3.3,5.6,71,0.00,,,0.00,WUHU216WMR100,2013-04-06 08:17:00,
2013-04-06 03:22:00,32.5,23.9,30.11,East,90,2.4,4.5,70,0.00,,,0.00,WUHU216WMR100,2013-04-06 08:22:00,
2013-04-06 03:27:00,32.5,23.9,30.11,SE,135,2.6,4.5,70,0.00,,,0.00,WUHU216WMR100,2013-04-06 08:27:00,
2013-04-06 03:32:00,32.5,24.2,30.11,ESE,112,4.1,4.5,71,0.00,,,0.00,WUHU216WMR100,2013-04-06 08:32:00,
2013-04-06 03:37:00,32.5,23.9,30.11,ESE,112,0.0,4.5,70,0.00,,,0.00,WUHU216WMR100,2013-04-06 08:37:00,
2013-04-06 03:42:00,32.5,23.9,30.11,East,90,2.6,4.1,70,0.00,,,0.00,WUHU216WMR100,2013-04-06 08:42:00,
2013-04-06 03:47:00,32.7,23.7,30.08,East,90,5.1,5.1,69,0.00,,,0.00,WUHU216WMR100,2013-04-06 08:47:00,
2013-04-06 03:52:00,32.9,23.9,30.08,ESE,112,3.3,5.1,69,0.00,,,0.00,WUHU216WMR100,2013-04-06 08:52:00,
2013-04-06 03:57:00,33.1,24.1,30.08,SE,135,5.1,5.1,69,0.00,,,0.00,WUHU216WMR100,2013-04-06 08:57:00,
2013-04-06 04:02:00,33.3,24.3,30.08,SSE,157,6.3,6.3,69,0.00,,,0.00,WUHU216WMR100,2013-04-06 09:02:00,
2013-04-06 04:07:00,33.6,23.9,30.08,East,90,7.1,7.1,67,0.00,,,0.00,WUHU216WMR100,2013-04-06 09:07:00,
2013-04-06 04:12:00,33.8,23.7,30.08,ESE,112,4.2,7.1,66,0.00,,,0.00,WUHU216WMR100,2013-04-06 09:12:00,
2013-04-06 04:17:00,34.0,23.2,30.08,ESE,112,5.9,7.1,64,0.00,,,0.00,WUHU216WMR100,2013-04-06 09:17:00,
2013-04-06 04:22:00,34.5,22.9,30.08,East,90,8.1,8.1,62,0.00,,,0.00,WUHU216WMR100,2013-04-06 09:22:00,
2013-04-06 04:27:00,34.9,23.3,30.08,SSE,157,7.8,12.2,62,0.00,,,0.00,WUHU216WMR100,2013-04-06 09:27:00,
2013-04-06 04:32:00,35.1,22.7,30.05,South,175,6.4,12.2,60,0.00,,,0.00,WUHU216WMR100,2013-04-06 09:32:00,
2013-04-06 04:37:00,35.4,22.5,30.05,SSE,157,7.8,10.4,59,0.00,,,0.00,WUHU216WMR100,2013-04-06 09:37:00,
2013-04-06 04:42:00,35.6,21.9,30.05,SSE,154,7.6,12.5,57,0.00,,,0.00,WUHU216WMR100,2013-04-06 09:42:00,
2013-04-06 04:47:00,36.0,21.0,30.05,ESE,112,15.2,15.2,54,0.00,,,0.00,WUHU216WMR100,2013-04-06 09:47:00,
2013-04-06 04:52:00,36.3,20.8,30.05,ESE,112,8.9,17.3,53,0.00,,,0.00,WUHU216WMR100,2013-04-06 09:52:00,
2013-04-06 04:57:00,36.7,20.7,30.05,SSE,157,8.1,17.3,52,0.00,,,0.00,WUHU216WMR100,2013-04-06 09:57:00,
2013-04-06 05:02:00,37.0,20.5,30.05,SE,135,9.6,12.2,51,0.00,,,0.00,WUHU216WMR100,2013-04-06 10:02:00,
2013-04-06 05:08:00,37.4,19.9,30.05,ESE,112,6.3,10.4,49,0.00,,,0.00,WUHU216WMR100,2013-04-06 10:08:00,
2013-04-06 05:13:00,38.1,18.5,30.05,SSE,157,16.7,16.7,45,0.00,,,0.00,WUHU216WMR100,2013-04-06 10:13:00,
2013-04-06 05:18:00,38.3,18.7,30.05,SSE,157,10.4,16.7,45,0.00,,,0.00,WUHU216WMR100,2013-04-06 10:18:00,
2013-04-06 05:23:00,38.5,18.3,30.05,ESE,115,11.9,15.8,44,0.00,,,0.00,WUHU216WMR100,2013-04-06 10:23:00,
2013-04-06 05:28:00,38.5,18.9,30.05,SE,138,9.2,15.8,45,0.00,,,0.00,WUHU216WMR100,2013-04-06 10:28:00,
2013-04-06 05:33:00,38.5,18.9,30.05,South,186,10.8,12.5,45,0.00,,,0.00,WUHU216WMR100,2013-04-06 10:33:00,
2013-04-06 05:38:00,38.7,18.5,30.05,ESE,112,17.0,17.0,44,0.00,,,0.00,WUHU216WMR100,2013-04-06 10:38:00,
2013-04-06 05:43:00,38.7,18.5,30.05,SSE,149,17.2,23.3,44,0.00,,,0.00,WUHU216WMR100,2013-04-06 10:43:00,
2013-04-06 05:48:00,38.7,19.0,30.05,SSE,154,11.0,23.3,45,0.00,,,0.00,WUHU216WMR100,2013-04-06 10:48:00,
2013-04-06 05:53:00,38.7,19.0,30.05,ESE,117,12.0,17.0,45,0.00,,,0.00,WUHU216WMR100,2013-04-06 10:53:00,
2013-04-06 05:58:00,38.8,18.6,30.05,SSE,157,9.0,17.0,44,0.00,,,0.00,WUHU216WMR100,2013-04-06 10:58:00,
2013-04-06 06:03:00,38.8,19.1,30.08,South,177,5.8,14.0,45,0.00,,,0.00,WUHU216WMR100,2013-04-06 11:03:00,
2013-04-06 06:08:00,38.8,19.1,30.08,SSE,157,10.2,12.9,45,0.00,,,0.00,WUHU216WMR100,2013-04-06 11:08:00,
2013-04-06 06:13:00,38.8,19.1,30.08,SE,135,4.5,12.9,45,0.00,,,0.00,WUHU216WMR100,2013-04-06 11:13:00,
2013-04-06 06:18:00,38.8,18.6,30.08,SSE,164,10.6,14.0,44,0.00,,,0.00,WUHU216WMR100,2013-04-06 11:18:00,
2013-04-06 06:23:00,38.8,18.6,30.08,South,176,5.3,14.0,44,0.00,,,0.00,WUHU216WMR100,2013-04-06 11:23:00,
2013-04-06 06:28:00,38.8,19.1,30.08,SSE,157,7.1,7.8,45,0.00,,,0.00,WUHU216WMR100,2013-04-06 11:28:00,
2013-04-06 06:33:00,38.8,19.1,30.08,SSE,157,9.9,9.9,45,0.00,,,0.00,WUHU216WMR100,2013-04-06 11:33:00,
2013-04-06 06:38:00,39.0,19.3,30.08,SSE,165,5.3,9.9,45,0.00,,,0.00,WUHU216WMR100,2013-04-06 11:38:00,
2013-04-06 06:43:00,39.2,19.5,30.08,SSE,157,7.8,12.5,45,0.00,,,0.00,WUHU216WMR100,2013-04-06 11:43:00,
2013-04-06 06:48:00,39.2,19.5,30.05,SSE,157,10.4,12.5,45,0.00,,,0.00,WUHU216WMR100,2013-04-06 11:48:00,
2013-04-06 06:53:00,39.4,19.7,30.05,ESE,112,10.4,16.2,45,0.00,,,0.00,WUHU216WMR100,2013-04-06 11:53:00,
2013-04-06 06:58:00,39.4,19.7,30.05,SSE,157,14.4,16.2,45,0.00,,,0.00,WUHU216WMR100,2013-04-06 11:58:00,
2013-04-06 07:03:00,39.7,20.0,30.05,SSW,202,12.9,16.7,45,0.00,,,0.00,WUHU216WMR100,2013-04-06 12:03:00,
2013-04-06 07:08:00,39.9,20.1,30.05,SSE,152,12.4,16.7,45,0.00,,,0.00,WUHU216WMR100,2013-04-06 12:08:00,
2013-04-06 07:13:00,40.1,19.8,30.05,WSW,247,13.4,16.2,44,0.00,,,0.00,WUHU216WMR100,2013-04-06 12:13:00,
2013-04-06 07:18:00,40.5,20.1,30.05,SE,137,9.0,13.4,44,0.00,,,0.00,WUHU216WMR100,2013-04-06 12:18:00,
2013-04-06 07:23:00,41.0,20.0,30.05,SSE,157,13.4,13.4,43,0.00,,,0.00,WUHU216WMR100,2013-04-06 12:23:00,
2013-04-06 07:28:00,41.4,20.4,30.05,ESE,115,8.1,17.0,43,0.00,,,0.00,WUHU216WMR100,2013-04-06 12:28:00,
2013-04-06 07:33:00,41.7,20.1,30.05,ESE,112,13.4,21.5,42,0.00,,,0.00,WUHU216WMR100,2013-04-06 12:33:00,
2013-04-06 07:38:00,42.1,20.5,30.05,SE,127,13.1,21.5,42,0.00,,,0.00,WUHU216WMR100,2013-04-06 12:38:00,
2013-04-06 07:43:00,42.4,20.2,30.05,SSE,157,16.2,17.7,41,0.00,,,0.00,WUHU216WMR100,2013-04-06 12:43:00,
2013-04-06 07:48:00,43.0,20.7,30.05,SSW,202,17.7,17.7,41,0.00,,,0.00,WUHU216WMR100,2013-04-06 12:48:00,
2013-04-06 07:53:00,43.5,20.6,30.05,SSW,202,6.3,17.7,40,0.00,,,0.00,WUHU216WMR100,2013-04-06 12:53:00,
2013-04-06 07:58:00,43.7,21.3,30.05,SSE,158,5.6,17.7,41,0.00,,,0.00,WUHU216WMR100,2013-04-06 12:58:00,
2013-04-06 08:03:00,43.9,20.9,30.05,SSW,192,6.1,15.8,40,0.00,,,0.00,WUHU216WMR100,2013-04-06 13:03:00,
2013-04-06 08:08:00,44.1,21.1,30.05,SSE,157,5.9,12.5,40,0.00,,,0.00,WUHU216WMR100,2013-04-06 13:08:00,
2013-04-06 08:14:00,44.4,21.4,30.05,South,178,12.3,13.4,40,0.00,,,0.00,WUHU216WMR100,2013-04-06 13:14:00,
2013-04-06 08:19:00,44.8,21.7,30.02,SSE,157,11.0,17.3,40,0.00,,,0.00,WUHU216WMR100,2013-04-06 13:19:00,
2013-04-06 08:24:00,45.1,21.4,30.02,SSW,202,15.5,17.3,39,0.00,,,0.00,WUHU216WMR100,2013-04-06 13:24:00,
2013-04-06 08:29:00,45.5,21.8,30.02,SE,135,12.0,15.5,39,0.00,,,0.00,WUHU216WMR100,2013-04-06 13:29:00,
2013-04-06 08:34:00,46.0,22.2,30.02,South,169,11.7,17.3,39,0.00,,,0.00,WUHU216WMR100,2013-04-06 13:34:00,
2013-04-06 08:39:00,46.4,22.6,30.02,SE,143,10.2,17.3,39,0.00,,,0.00,WUHU216WMR100,2013-04-06 13:39:00,
2013-04-06 08:44:00,46.9,23.0,30.02,SSE,157,17.0,17.3,39,0.00,,,0.00,WUHU216WMR100,2013-04-06 13:44:00,
2013-04-06 08:49:00,47.3,22.8,30.02,SSE,157,10.4,17.3,38,0.00,,,0.00,WUHU216WMR100,2013-04-06 13:49:00,
2013-04-06 08:54:00,48.0,23.4,30.02,SSE,157,10.4,17.0,38,0.00,,,0.00,WUHU216WMR100,2013-04-06 13:54:00,
2013-04-06 08:59:00,48.6,23.9,30.02,SSE,157,16.2,16.2,38,0.00,,,0.00,WUHU216WMR100,2013-04-06 13:59:00,
2013-04-06 09:04:00,48.9,23.5,30.02,SSE,168,11.6,17.0,37,0.00,,,0.00,WUHU216WMR100,2013-04-06 14:04:00,
2013-04-06 09:09:00,49.3,23.9,30.02,SSE,157,10.4,18.1,37,0.00,,,0.00,WUHU216WMR100,2013-04-06 14:09:00,
2013-04-06 09:15:00,49.6,23.5,30.02,ESE,112,18.5,20.6,36,0.00,,,0.00,WUHU216WMR100,2013-04-06 14:15:00,
2013-04-06 09:20:00,50.0,23.2,30.02,SSW,202,14.4,18.5,35,0.00,,,0.00,WUHU216WMR100,2013-04-06 14:20:00,
2013-04-06 09:25:00,50.5,23.6,30.02,ESE,112,18.1,18.5,35,0.00,,,0.00,WUHU216WMR100,2013-04-06 14:25:00,
2013-04-06 09:30:00,51.3,23.6,30.02,South,179,15.9,21.1,34,0.00,,,0.00,WUHU216WMR100,2013-04-06 14:30:00,
2013-04-06 09:35:00,51.8,24.1,29.99,South,170,5.7,21.1,34,0.00,,,0.00,WUHU216WMR100,2013-04-06 14:35:00,
2013-04-06 09:40:00,52.2,23.7,29.99,NW,315,8.1,15.8,33,0.00,,,0.00,WUHU216WMR100,2013-04-06 14:40:00,
2013-04-06 09:45:00,53.1,24.5,29.99,SE,135,7.1,11.1,33,0.00,,,0.00,WUHU216WMR100,2013-04-06 14:45:00,
2013-04-06 09:50:00,54.1,24.6,29.99,SE,146,7.4,10.4,32,0.00,,,0.00,WUHU216WMR100,2013-04-06 14:50:00,
2013-04-06 09:55:00,54.9,25.4,29.99,SSE,157,11.9,11.9,32,0.00,,,0.00,WUHU216WMR100,2013-04-06 14:55:00,
2013-04-06 10:00:00,55.8,24.6,29.99,South,180,9.2,11.9,30,0.00,,,0.00,WUHU216WMR100,2013-04-06 15:00:00,
2013-04-06 10:05:00,54.7,23.6,29.99,South,170,16.9,21.5,30,0.00,,,0.00,WUHU216WMR100,2013-04-06 15:05:00,
2013-04-06 10:10:00,54.1,23.1,29.99,WSW,247,13.4,21.5,30,0.00,,,0.00,WUHU216WMR100,2013-04-06 15:10:00,
2013-04-06 10:15:00,54.3,24.1,29.99,South,180,14.4,16.2,31,0.00,,,0.00,WUHU216WMR100,2013-04-06 15:15:00,
2013-04-06 10:20:00,55.4,25.0,29.96,SSE,157,5.1,14.4,31,0.00,,,0.00,WUHU216WMR100,2013-04-06 15:20:00,
2013-04-06 10:25:00,55.4,24.2,29.96,SSE,152,15.8,20.6,30,0.00,,,0.00,WUHU216WMR100,2013-04-06 15:25:00,
2013-04-06 10:30:00,57.0,25.6,29.96,SE,126,8.9,20.6,30,0.00,,,0.00,WUHU216WMR100,2013-04-06 15:30:00,
2013-04-06 10:35:00,57.9,25.6,29.96,SSE,157,21.5,21.5,29,0.00,,,0.00,WUHU216WMR100,2013-04-06 15:35:00,
2013-04-06 10:40:00,57.4,25.2,29.96,SSE,163,10.3,21.5,29,0.00,,,0.00,WUHU216WMR100,2013-04-06 15:40:00,
2013-04-06 10:45:00,57.9,25.6,29.96,SSE,153,16.9,21.8,29,0.00,,,0.00,WUHU216WMR100,2013-04-06 15:45:00,
2013-04-06 10:50:00,59.0,25.7,29.96,South,182,10.0,21.8,28,0.00,,,0.00,WUHU216WMR100,2013-04-06 15:50:00,
2013-04-06 10:55:00,59.4,26.1,29.96,SE,146,9.7,21.5,28,0.00,,,0.00,WUHU216WMR100,2013-04-06 15:55:00,
2013-04-06 11:01:00,59.7,25.5,29.96,SW,225,11.9,14.4,27,0.00,,,0.00,WUHU216WMR100,2013-04-06 16:01:00,
2013-04-06 11:06:00,59.9,25.6,29.93,ESE,114,9.0,17.3,27,0.00,,,0.00,WUHU216WMR100,2013-04-06 16:06:00,
2013-04-06 11:11:00,61.0,26.6,29.93,East,101,11.3,17.3,27,0.00,,,0.00,WUHU216WMR100,2013-04-06 16:11:00,
2013-04-06 11:16:00,61.3,25.9,29.93,SSE,166,13.0,21.8,26,0.00,,,0.00,WUHU216WMR100,2013-04-06 16:16:00,
2013-04-06 11:21:00,62.6,27.1,29.93,ESE,112,6.6,21.8,26,0.00,,,0.00,WUHU216WMR100,2013-04-06 16:21:00,
2013-04-06 11:26:00,62.8,27.2,29.93,South,183,8.1,11.9,26,0.00,,,0.00,WUHU216WMR100,2013-04-06 16:26:00,
2013-04-06 11:31:00,63.0,27.4,29.93,SSE,157,18.2,18.8,26,0.00,,,0.00,WUHU216WMR100,2013-04-06 16:31:00,
2013-04-06 11:36:00,64.0,28.3,29.90,SSE,157,6.6,18.8,26,0.00,,,0.00,WUHU216WMR100,2013-04-06 16:36:00,
2013-04-06 11:41:00,64.2,27.5,29.90,SE,128,16.9,20.3,25,0.00,,,0.00,WUHU216WMR100,2013-04-06 16:41:00,
2013-04-06 11:46:00,63.9,27.2,29.90,SE,137,12.1,20.3,25,0.00,,,0.00,WUHU216WMR100,2013-04-06 16:46:00,
2013-04-06 11:52:00,63.0,26.5,29.90,ESE,112,21.8,21.8,25,0.00,,,0.00,WUHU216WMR100,2013-04-06 16:52:00,
2013-04-06 11:57:00,63.1,26.6,29.90,SSE,157,9.6,21.8,25,0.00,,,0.00,WUHU216WMR100,2013-04-06 16:57:00,
2013-04-06 12:02:00,64.0,27.3,29.90,SSE,157,16.2,17.3,25,0.00,,,0.00,WUHU216WMR100,2013-04-06 17:02:00,
2013-04-06 12:07:00,64.6,27.8,29.90,SE,135,25.1,25.1,25,0.00,,,0.00,WUHU216WMR100,2013-04-06 17:07:00,
2013-04-06 12:12:00,63.7,27.1,29.90,SSE,149,8.3,25.1,25,0.00,,,0.00,WUHU216WMR100,2013-04-06 17:12:00,
2013-04-06 12:17:00,64.2,27.5,29.90,SSE,157,12.6,25.1,25,0.00,,,0.00,WUHU216WMR100,2013-04-06 17:17:00,
2013-04-06 12:22:00,65.1,28.3,29.90,North,0,5.6,17.7,25,0.00,,,0.00,WUHU216WMR100,2013-04-06 17:22:00,
2013-04-06 12:27:00,65.5,28.6,29.90,SE,135,7.1,12.5,25,0.00,,,0.00,WUHU216WMR100,2013-04-06 17:27:00,
2013-04-06 12:32:00,65.5,27.6,29.90,SW,225,8.1,12.5,24,0.00,,,0.00,WUHU216WMR100,2013-04-06 17:32:00,
2013-04-06 12:38:00,64.2,27.5,29.90,SSE,157,10.2,17.0,25,0.00,,,0.00,WUHU216WMR100,2013-04-06 17:38:00,
2013-04-06 12:43:00,63.7,27.1,29.90,SSE,161,9.0,17.0,25,0.00,,,0.00,WUHU216WMR100,2013-04-06 17:43:00,
2013-04-06 12:48:00,64.0,27.3,29.87,ESE,112,10.4,20.6,25,0.00,,,0.00,WUHU216WMR100,2013-04-06 17:48:00,
2013-04-06 12:53:00,65.3,28.4,29.87,SE,135,17.7,20.6,25,0.00,,,0.00,WUHU216WMR100,2013-04-06 17:53:00,
2013-04-06 12:58:00,65.8,28.9,29.87,SW,225,10.1,17.7,25,0.00,,,0.00,WUHU216WMR100,2013-04-06 17:58:00,
2013-04-06 13:03:00,66.6,28.5,29.87,SSE,157,9.0,17.7,24,0.00,,,0.00,WUHU216WMR100,2013-04-06 18:03:00,
2013-04-06 13:08:00,67.3,29.1,29.87,South,180,15.5,15.5,24,0.00,,,0.00,WUHU216WMR100,2013-04-06 18:08:00,
2013-04-06 13:13:00,67.8,29.6,29.87,WSW,253,8.5,21.1,24,0.00,,,0.00,WUHU216WMR100,2013-04-06 18:13:00,
2013-04-06 13:19:00,68.5,30.2,29.84,SSE,148,11.0,21.1,24,0.00,,,0.00,WUHU216WMR100,2013-04-06 18:19:00,
2013-04-06 13:24:00,68.7,30.3,29.84,ESE,112,9.2,20.6,24,0.00,,,0.00,WUHU216WMR100,2013-04-06 18:24:00,
2013-04-06 13:29:00,68.7,30.3,29.84,SSE,148,10.2,20.6,24,0.00,,,0.00,WUHU216WMR100,2013-04-06 18:29:00,
2013-04-06 13:34:00,69.6,31.1,29.82,SSE,157,10.4,15.8,24,0.00,,,0.00,WUHU216WMR100,2013-04-06 18:34:00,
2013-04-06 13:39:00,70.7,31.0,29.82,South,180,9.9,14.4,23,0.00,,,0.00,WUHU216WMR100,2013-04-06 18:39:00,
2013-04-06 13:44:00,69.8,30.2,29.82,South,191,11.7,25.1,23,0.00,,,0.00,WUHU216WMR100,2013-04-06 18:44:00,
2013-04-06 13:49:00,71.1,31.3,29.82,South,190,6.7,25.1,23,0.00,,,0.00,WUHU216WMR100,2013-04-06 18:49:00,
2013-04-06 13:54:00,71.6,31.7,29.82,ESE,122,8.7,9.9,23,0.00,,,0.00,WUHU216WMR100,2013-04-06 18:54:00,
2013-04-06 13:59:00,71.1,31.3,29.82,SSW,202,12.5,20.6,23,0.00,,,0.00,WUHU216WMR100,2013-04-06 18:59:00,
2013-04-06 14:04:00,71.2,31.4,29.79,SW,222,11.2,21.1,23,0.00,,,0.00,WUHU216WMR100,2013-04-06 19:04:00,
2013-04-06 14:10:00,71.1,31.3,29.79,West,265,8.8,21.1,23,0.00,,,0.00,WUHU216WMR100,2013-04-06 19:10:00,
2013-04-06 14:15:00,70.9,31.1,29.79,SSE,148,6.0,20.3,23,0.00,,,0.00,WUHU216WMR100,2013-04-06 19:15:00,
2013-04-06 14:20:00,72.0,32.1,29.79,South,172,8.1,20.3,23,0.00,,,0.00,WUHU216WMR100,2013-04-06 19:20:00,
2013-04-06 14:25:00,72.0,31.0,29.79,South,187,15.4,21.5,22,0.00,,,0.00,WUHU216WMR100,2013-04-06 19:25:00,
2013-04-06 14:30:00,72.3,31.2,29.79,SSE,157,10.7,21.5,22,0.00,,,0.00,WUHU216WMR100,2013-04-06 19:30:00,
2013-04-06 14:35:00,72.5,31.4,29.79,South,182,9.3,14.4,22,0.00,,,0.00,WUHU216WMR100,2013-04-06 19:35:00,
2013-04-06 14:40:00,71.4,31.6,29.79,SW,225,17.0,17.0,23,0.00,,,0.00,WUHU216WMR100,2013-04-06 19:40:00,
2013-04-06 14:45:00,71.1,31.3,29.79,ESE,112,13.3,17.0,23,0.00,,,0.00,WUHU216WMR100,2013-04-06 19:45:00,
2013-04-06 14:50:00,71.4,31.6,29.76,SW,232,10.1,17.0,23,0.00,,,0.00,WUHU216WMR100,2013-04-06 19:50:00,
2013-04-06 14:55:00,71.6,30.7,29.76,SSW,195,8.0,16.2,22,0.00,,,0.00,WUHU216WMR100,2013-04-06 19:55:00,
2013-04-06 15:00:00,72.5,31.4,29.76,ESE,117,16.3,21.5,22,0.00,,,0.00,WUHU216WMR100,2013-04-06 20:00:00,
2013-04-06 15:05:00,72.3,31.2,29.76,SE,144,14.9,21.5,22,0.00,,,0.00,WUHU216WMR100,2013-04-06 20:05:00,
2013-04-06 15:10:00,71.8,30.8,29.76,SSW,202,13.4,20.0,22,0.00,,,0.00,WUHU216WMR100,2013-04-06 20:10:00,
2013-04-06 15:15:00,72.3,31.2,29.76,SSE,163,10.5,20.0,22,0.00,,,0.00,WUHU216WMR100,2013-04-06 20:15:00,
2013-04-06 15:20:00,73.2,32.0,29.73,SE,127,11.3,20.6,22,0.00,,,0.00,WUHU216WMR100,2013-04-06 20:20:00,
2013-04-06 15:25:00,72.9,31.7,29.73,SSE,168,15.1,20.6,22,0.00,,,0.00,WUHU216WMR100,2013-04-06 20:25:00,
2013-04-06 15:30:00,73.2,32.0,29.73,SSW,202,12.2,18.1,22,0.00,,,0.00,WUHU216WMR100,2013-04-06 20:30:00,
2013-04-06 15:35:00,73.8,32.5,29.70,SSW,200,13.0,17.3,22,0.00,,,0.00,WUHU216WMR100,2013-04-06 20:35:00,
2013-04-06 15:40:00,73.2,29.7,29.70,SW,225,23.3,23.3,20,0.00,,,0.00,WUHU216WMR100,2013-04-06 20:40:00,
2013-04-06 15:45:00,72.3,28.9,29.70,South,185,8.2,25.4,20,0.00,,,0.00,WUHU216WMR100,2013-04-06 20:45:00,
2013-04-06 15:50:00,72.3,31.2,29.70,West,270,9.6,25.4,22,0.00,,,0.00,WUHU216WMR100,2013-04-06 20:50:00,
2013-04-06 15:55:00,73.2,29.7,29.70,South,180,9.6,16.7,20,0.00,,,0.00,WUHU216WMR100,2013-04-06 20:55:00,
2013-04-06 16:00:00,72.7,29.3,29.70,East,96,9.8,16.2,20,0.00,,,0.00,WUHU216WMR100,2013-04-06 21:00:00,
2013-04-06 16:05:00,71.8,28.5,29.70,East,95,9.9,16.7,20,0.00,,,0.00,WUHU216WMR100,2013-04-06 21:05:00,
2013-04-06 16:10:00,71.8,28.5,29.70,North,0,15.5,16.7,20,0.00,,,0.00,WUHU216WMR100,2013-04-06 21:10:00,
2013-04-06 16:15:00,72.0,28.7,29.70,ESE,114,10.6,15.5,20,0.00,,,0.00,WUHU216WMR100,2013-04-06 21:15:00,
2013-04-06 16:20:00,72.5,31.4,29.70,SSE,157,14.4,15.5,22,0.00,,,0.00,WUHU216WMR100,2013-04-06 21:20:00,
2013-04-06 16:25:00,72.1,28.8,29.70,SSE,165,15.3,16.7,20,0.00,,,0.00,WUHU216WMR100,2013-04-06 21:25:00,
2013-04-06 16:30:00,71.8,28.5,29.70,WSW,247,8.1,20.3,20,0.00,,,0.00,WUHU216WMR100,2013-04-06 21:30:00,
2013-04-06 16:35:00,71.8,28.5,29.70,South,183,11.8,20.3,20,0.00,,,0.00,WUHU216WMR100,2013-04-06 21:35:00,
2013-04-06 16:41:00,71.6,30.7,29.70,South,180,17.3,21.1,22,0.00,,,0.00,WUHU216WMR100,2013-04-06 21:41:00,
2013-04-06 16:46:00,71.1,31.3,29.70,West,270,12.7,21.1,23,0.00,,,0.00,WUHU216WMR100,2013-04-06 21:46:00,
2013-04-06 16:51:00,70.9,31.1,29.70,WSW,247,8.1,22.1,23,0.00,,,0.00,WUHU216WMR100,2013-04-06 21:51:00,
2013-04-06 16:56:00,70.7,31.0,29.70,WNW,302,9.5,22.1,23,0.00,,,0.00,WUHU216WMR100,2013-04-06 21:56:00,
2013-04-06 17:01:00,70.2,30.6,29.70,WSW,247,9.9,12.5,23,0.00,,,0.00,WUHU216WMR100,2013-04-06 22:01:00,
2013-04-06 17:06:00,70.0,30.4,29.70,SSE,157,10.4,12.5,23,0.00,,,0.00,WUHU216WMR100,2013-04-06 22:06:00,
2013-04-06 17:11:00,69.8,30.2,29.70,NE,56,9.5,12.5,23,0.00,,,0.00,WUHU216WMR100,2013-04-06 22:11:00,
2013-04-06 17:16:00,69.6,30.1,29.70,SSW,202,9.2,12.5,23,0.00,,,0.00,WUHU216WMR100,2013-04-06 22:16:00,
2013-04-06 17:21:00,69.4,29.9,29.70,SSW,205,9.5,19.6,23,0.00,,,0.00,WUHU216WMR100,2013-04-06 22:21:00,
2013-04-06 17:26:00,69.3,29.8,29.70,South,182,6.0,19.6,23,0.00,,,0.00,WUHU216WMR100,2013-04-06 22:26:00,
2013-04-06 17:31:00,68.9,29.5,29.70,ENE,67,12.2,16.2,23,0.00,,,0.00,WUHU216WMR100,2013-04-06 22:31:00,
2013-04-06 17:36:00,68.9,29.5,29.70,SW,215,11.6,16.2,23,0.00,,,0.00,WUHU216WMR100,2013-04-06 22:36:00,
2013-04-06 17:41:00,68.9,29.5,29.70,South,183,6.6,12.5,23,0.00,,,0.00,WUHU216WMR100,2013-04-06 22:41:00,
2013-04-06 17:46:00,68.7,30.3,29.70,East,84,6.6,9.6,24,0.00,,,0.00,WUHU216WMR100,2013-04-06 22:46:00,
2013-04-06 17:51:00,68.5,30.2,29.70,NW,311,4.0,9.2,24,0.00,,,0.00,WUHU216WMR100,2013-04-06 22:51:00,
2013-04-06 17:56:00,68.4,30.1,29.70,SSE,147,5.5,9.2,24,0.00,,,0.00,WUHU216WMR100,2013-04-06 22:56:00,
2013-04-06 18:01:00,68.2,29.9,29.70,SSW,205,9.3,13.4,24,0.00,,,0.00,WUHU216WMR100,2013-04-06 23:01:00,
2013-04-06 18:06:00,68.2,29.9,29.67,SSW,202,12.2,13.4,24,0.00,,,0.00,WUHU216WMR100,2013-04-06 23:06:00,
2013-04-06 18:11:00,68.2,29.9,29.67,WSW,247,4.8,12.5,24,0.00,,,0.00,WUHU216WMR100,2013-04-06 23:11:00,
2013-04-06 18:16:00,68.2,29.9,29.70,SSW,202,9.9,16.7,24,0.00,,,0.00,WUHU216WMR100,2013-04-06 23:16:00,
2013-04-06 18:21:00,68.0,29.7,29.70,South,171,7.6,16.7,24,0.00,,,0.00,WUHU216WMR100,2013-04-06 23:21:00,
2013-04-06 18:26:00,67.8,30.6,29.70,South,186,10.4,15.2,25,0.00,,,0.00,WUHU216WMR100,2013-04-06 23:26:00,
2013-04-06 18:31:00,67.6,30.4,29.70,SSW,202,7.4,15.2,25,0.00,,,0.00,WUHU216WMR100,2013-04-06 23:31:00,
2013-04-06 18:37:00,67.6,30.4,29.70,South,180,14.0,14.0,25,0.00,,,0.00,WUHU216WMR100,2013-04-06 23:37:00,
2013-04-06 18:42:00,67.6,30.4,29.70,SW,225,25.4,25.4,25,0.00,,,0.00,WUHU216WMR100,2013-04-06 23:42:00,
2013-04-06 18:47:00,67.8,30.6,29.70,South,180,10.4,25.4,25,0.00,,,0.00,WUHU216WMR100,2013-04-06 23:47:00,
2013-04-06 18:52:00,67.3,32.0,29.70,SSW,209,6.8,25.4,27,0.00,,,0.00,WUHU216WMR100,2013-04-06 23:52:00,
2013-04-06 18:57:00,66.7,32.4,29.70,SSE,163,5.6,12.5,28,0.00,,,0.00,WUHU216WMR100,2013-04-06 23:57:00,
2013-04-06 19:02:00,66.6,32.3,29.67,SSE,157,5.6,12.5,28,0.00,,,0.00,WUHU216WMR100,2013-04-07 00:02:00,
2013-04-06 19:07:00,66.6,31.4,29.67,WNW,292,7.1,9.9,27,0.00,,,0.00,WUHU216WMR100,2013-04-07 00:07:00,
2013-04-06 19:12:00,66.6,32.3,29.67,SSE,157,10.0,12.5,28,0.00,,,0.00,WUHU216WMR100,2013-04-07 00:12:00,
2013-04-06 19:17:00,66.4,32.1,29.67,SSE,157,7.1,12.5,28,0.00,,,0.00,WUHU216WMR100,2013-04-07 00:17:00,
2013-04-06 19:22:00,66.4,32.1,29.67,SSE,153,5.9,15.5,28,0.00,,,0.00,WUHU216WMR100,2013-04-07 00:22:00,
2013-04-06 19:27:00,66.4,32.1,29.67,South,171,9.4,16.2,28,0.00,,,0.00,WUHU216WMR100,2013-04-07 00:27:00,
2013-04-06 19:32:00,66.4,32.1,29.67,SSW,197,10.4,16.2,28,0.00,,,0.00,WUHU216WMR100,2013-04-07 00:32:00,
2013-04-06 19:38:00,66.4,31.2,29.67,South,171,8.2,12.9,27,0.00,,,0.00,WUHU216WMR100,2013-04-07 00:38:00,
2013-04-06 19:43:00,66.4,32.1,29.67,SE,126,7.3,12.9,28,0.00,,,0.00,WUHU216WMR100,2013-04-07 00:43:00,
2013-04-06 19:48:00,66.4,32.1,29.67,South,180,6.6,14.0,28,0.00,,,0.00,WUHU216WMR100,2013-04-07 00:48:00,
2013-04-06 19:53:00,66.0,33.5,29.67,SSW,205,5.4,14.0,30,0.00,,,0.00,WUHU216WMR100,2013-04-07 00:53:00,
2013-04-06 19:58:00,65.5,34.6,29.67,SW,232,4.1,12.5,32,0.00,,,0.00,WUHU216WMR100,2013-04-07 00:58:00,
2013-04-06 20:03:00,65.5,34.6,29.70,SSW,202,12.2,12.5,32,0.00,,,0.00,WUHU216WMR100,2013-04-07 01:03:00,
2013-04-06 20:08:00,65.3,36.0,29.70,East,93,7.4,12.5,34,0.00,,,0.00,WUHU216WMR100,2013-04-07 01:08:00,
2013-04-06 20:13:00,64.9,35.7,29.70,WSW,247,18.1,18.1,34,0.00,,,0.00,WUHU216WMR100,2013-04-07 01:13:00,
2013-04-06 20:18:00,64.4,35.9,29.67,SSE,157,10.4,18.1,35,0.00,,,0.00,WUHU216WMR100,2013-04-07 01:18:00,
2013-04-06 20:23:00,64.2,35.8,29.67,SSE,157,6.6,18.1,35,0.00,,,0.00,WUHU216WMR100,2013-04-07 01:23:00,
2013-04-06 20:28:00,64.2,35.8,29.67,SSE,153,9.7,10.4,35,0.00,,,0.00,WUHU216WMR100,2013-04-07 01:28:00,
2013-04-06 20:33:00,64.2,35.8,29.67,SSW,202,4.8,10.4,35,0.00,,,0.00,WUHU216WMR100,2013-04-07 01:33:00,
2013-04-06 20:38:00,64.2,35.8,29.67,SSE,157,11.1,11.1,35,0.00,,,0.00,WUHU216WMR100,2013-04-07 01:38:00,
2013-04-06 20:43:00,64.4,35.2,29.67,SSW,202,9.2,11.1,34,0.00,,,0.00,WUHU216WMR100,2013-04-07 01:43:00,
2013-04-06 20:48:00,64.2,35.8,29.67,South,180,7.1,11.1,35,0.00,,,0.00,WUHU216WMR100,2013-04-07 01:48:00,
2013-04-06 20:53:00,64.2,35.8,29.67,SSW,209,5.3,10.7,35,0.00,,,0.00,WUHU216WMR100,2013-04-07 01:53:00,
2013-04-06 20:58:00,64.4,35.2,29.67,SW,225,11.9,11.9,34,0.00,,,0.00,WUHU216WMR100,2013-04-07 01:58:00,
2013-04-06 21:03:00,63.9,36.2,29.67,SSW,202,11.9,11.9,36,0.00,,,0.00,WUHU216WMR100,2013-04-07 02:03:00,
2013-04-06 21:08:00,63.5,35.9,29.67,ESE,106,5.8,11.9,36,0.00,,,0.00,WUHU216WMR100,2013-04-07 02:08:00,
2013-04-06 21:13:00,63.1,35.5,29.67,NE,36,4.9,11.9,36,0.00,,,0.00,WUHU216WMR100,2013-04-07 02:13:00,
2013-04-06 21:18:00,63.3,35.0,29.67,SSE,157,3.6,9.6,35,0.00,,,0.00,WUHU216WMR100,2013-04-07 02:18:00,
2013-04-06 21:24:00,63.5,35.1,29.67,WSW,247,16.7,16.7,35,0.00,,,0.00,WUHU216WMR100,2013-04-07 02:24:00,
2013-04-06 21:29:00,63.3,35.7,29.67,South,172,7.2,16.7,36,0.00,,,0.00,WUHU216WMR100,2013-04-07 02:29:00,
2013-04-06 21:34:00,63.0,35.4,29.67,SSE,157,14.4,14.4,36,0.00,,,0.00,WUHU216WMR100,2013-04-07 02:34:00,
2013-04-06 21:39:00,62.8,35.2,29.67,SSW,202,7.1,20.6,36,0.00,,,0.00,WUHU216WMR100,2013-04-07 02:39:00,
2013-04-06 21:44:00,62.8,35.2,29.67,North,0,8.1,20.6,36,0.00,,,0.00,WUHU216WMR100,2013-04-07 02:44:00,
2013-04-06 21:49:00,62.8,35.9,29.67,South,186,10.6,12.2,37,0.00,,,0.00,WUHU216WMR100,2013-04-07 02:49:00,
2013-04-06 21:54:00,62.6,35.8,29.67,WSW,247,8.1,12.5,37,0.00,,,0.00,WUHU216WMR100,2013-04-07 02:54:00,
2013-04-06 21:59:00,62.6,35.8,29.67,SSE,157,9.6,12.9,37,0.00,,,0.00,WUHU216WMR100,2013-04-07 02:59:00,
2013-04-06 22:04:00,62.6,35.8,29.64,SW,225,11.4,15.5,37,0.00,,,0.00,WUHU216WMR100,2013-04-07 03:04:00,
2013-04-06 22:09:00,62.6,35.1,29.64,SE,138,9.1,15.5,36,0.00,,,0.00,WUHU216WMR100,2013-04-07 03:09:00,
2013-04-06 22:14:00,63.0,35.4,29.64,SSW,202,9.6,14.7,36,0.00,,,0.00,WUHU216WMR100,2013-04-07 03:14:00,
2013-04-06 22:19:00,63.0,35.4,29.64,SW,225,11.4,14.7,36,0.00,,,0.00,WUHU216WMR100,2013-04-07 03:19:00,
2013-04-06 22:25:00,63.0,35.4,29.64,ENE,78,5.8,11.4,36,0.00,,,0.00,WUHU216WMR100,2013-04-07 03:25:00,
2013-04-06 22:30:00,62.8,35.2,29.64,South,184,8.0,11.4,36,0.00,,,0.00,WUHU216WMR100,2013-04-07 03:30:00,
2013-04-06 22:35:00,62.6,35.1,29.64,South,180,5.6,10.7,36,0.00,,,0.00,WUHU216WMR100,2013-04-07 03:35:00,
2013-04-06 22:40:00,62.4,34.9,29.64,SSW,202,14.0,14.0,36,0.00,,,0.00,WUHU216WMR100,2013-04-07 03:40:00,
2013-04-06 22:45:00,62.4,34.9,29.64,South,173,6.4,14.0,36,0.00,,,0.00,WUHU216WMR100,2013-04-07 03:45:00,
2013-04-06 22:50:00,62.2,34.7,29.64,ENE,67,7.1,14.0,36,0.00,,,0.00,WUHU216WMR100,2013-04-07 03:50:00,
2013-04-06 22:55:00,62.6,34.4,29.64,SW,225,12.5,12.5,35,0.00,,,0.00,WUHU216WMR100,2013-04-07 03:55:00,
2013-04-06 23:00:00,62.6,34.4,29.64,SW,225,6.3,12.5,35,0.00,,,0.00,WUHU216WMR100,2013-04-07 04:00:00,
2013-04-06 23:05:00,62.6,34.4,29.64,WSW,247,9.2,9.2,35,0.00,,,0.00,WUHU216WMR100,2013-04-07 04:05:00,
2013-04-06 23:10:00,62.8,34.5,29.64,SSE,148,8.3,10.4,35,0.00,,,0.00,WUHU216WMR100,2013-04-07 04:10:00,
2013-04-06 23:15:00,63.0,34.0,29.64,SW,225,18.5,18.5,34,0.00,,,0.00,WUHU216WMR100,2013-04-07 04:15:00,
2013-04-06 23:20:00,63.0,34.0,29.64,South,180,9.2,18.5,34,0.00,,,0.00,WUHU216WMR100,2013-04-07 04:20:00,
2013-04-06 23:25:00,63.0,34.0,29.64,SW,225,6.6,9.2,34,0.00,,,0.00,WUHU216WMR100,2013-04-07 04:25:00,
2013-04-06 23:30:00,63.3,34.2,29.64,SSW,202,10.8,13.4,34,0.00,,,0.00,WUHU216WMR100,2013-04-07 04:30:00,
2013-04-06 23:35:00,63.5,34.4,29.64,SSE,157,12.2,13.4,34,0.00,,,0.00,WUHU216WMR100,2013-04-07 04:35:00,
2013-04-06 23:40:00,63.3,34.2,29.64,SSW,202,10.7,12.5,34,0.00,,,0.00,WUHU216WMR100,2013-04-07 04:40:00,
2013-04-06 23:45:00,63.5,34.4,29.64,South,171,9.1,12.9,34,0.00,,,0.00,WUHU216WMR100,2013-04-07 04:45:00,
2013-04-06 23:50:00,61.2,38.4,29.64,WSW,237,18.8,30.7,43,0.00,,,0.00,WUHU216WMR100,2013-04-07 04:50:00,
2013-04-06 23:55:00,60.4,38.9,29.64,WSW,244,11.2,30.7,45,0.00,,,0.00,WUHU216WMR100,2013-04-07 04:55:00,